Flag for Canada Weather past 2 weeks in Brampton, Ontario, Canada

Now
46 °F

Clear.


Feels Like: 41 °F
Forecast: 37 / 53 °F
Wind: 13 mph from North

Location: Toronto Pearson International Airport

Current Time: Apr 18, 2015 at 11:49:15 PM

Latest Report: Apr 18, 2015 at 11:00 PM


Visibility: 15 mi

Pressure: 30.21 "Hg

Humidity: 50%

Dew point: 28 °F

Location of BramptonLocation

Historic Weather in Brampton — Graph

°F

Brampton temperature yesterday

Maximum temperature yesterday: 72 °F (at 4:00 PM)
Minimum temperature yesterday: 46 °F (at 1:00 AM)
Average temperature yesterday: 58 °F

Past Weeks' High & Low Weather Summary

 TemperatureHumidityPressure
High73 °F (Apr 13, 5:00 PM)100% (Apr 8, 5:00 PM)30.42 "Hg (Apr 8, 5:00 PM)
Low27 °F (Apr 5, 3:00 AM)19% (Apr 14, 3:00 PM)29.43 "Hg (Apr 10, 10:00 AM)
Average45 °F63%30.10 "Hg
* Reported Apr 3 10:00 PM — Apr 18 10:00 PM, Brampton, Weather by CustomWeather, © 2015

Note: Actual official high and low records may vary slightly from our data, if they occured in-between our weather recording intervals... More about our weather records

Advertising

Brampton weather history for previous 24 hours

 ConditionsComfort  
Time TempWeatherWind HumidityBarometerVisibility
10:00 PM
Sat, Apr 18
50 °FClear.14 mph43%30.20 "Hg15 mi
9:00 PM52 °FPassing clouds.15 mph44%30.18 "Hg15 mi
8:00 PM54 °FPassing clouds.17 mph41%30.16 "Hg15 mi
7:00 PM59 °FPassing clouds.16 mph34%30.15 "Hg15 mi
6:00 PM61 °FPassing clouds.15 mph31%30.13 "Hg15 mi
5:00 PM63 °FPassing clouds.13 mph30%30.11 "Hg15 mi
4:00 PM63 °FPassing clouds.15 mph30%30.08 "Hg15 mi
3:00 PM63 °FPassing clouds.20 mph27%30.07 "Hg15 mi
2:00 PM63 °FPassing clouds.22 mph25%30.06 "Hg15 mi
1:00 PM61 °FPassing clouds.28 mph31%30.05 "Hg15 mi
12:00 PM63 °FPassing clouds.28 mph32%30.03 "Hg15 mi
11:00 AM68 °FSunny.23 mph35%29.98 "Hg15 mi
10:00 AM66 °FPassing clouds.25 mph40%29.96 "Hg15 mi
9:00 AM59 °FScattered clouds.16 mph59%29.96 "Hg15 mi
8:00 AM54 °FScattered clouds.7 mph72%29.96 "Hg15 mi
7:00 AM50 °FPassing clouds.3 mph71%29.96 "Hg15 mi
6:00 AM46 °FPassing clouds.5 mph76%29.95 "Hg15 mi
5:00 AM50 °FClear.No wind67%29.95 "Hg15 mi
4:00 AM52 °FPassing clouds.2 mph62%29.96 "Hg15 mi
3:00 AM52 °FClear.6 mph67%29.96 "Hg15 mi
2:00 AM52 °FClear.3 mph62%29.98 "Hg15 mi
1:00 AM54 °FClear.6 mph58%29.99 "Hg15 mi
12:00 AM54 °FClear.5 mph58%29.99 "Hg15 mi
11:00 PM
Fri, Apr 17
57 °FClear.6 mph51%30.00 "Hg15 mi
Weather by CustomWeather, © 2015

See weather overviewHow to use our weather pages